TITAN 34D TRANSTAGE DEB, 23039

Orbit data source: Space-Track

TITAN 34D TRANSTAGE DEB, 23039 is space debris in HEO originally from a launch on Fri, 02 Sep 1988 UTC launched from the Air Force Eastern Test Range (AFETR). Debris objects in space refer to the collection of defunct objects orbiting the Earth. Examples of debris include non-operational satellites, rocket bodies, and fragments generated from explosions, collisions, or faulty payload assembly.

Loading next visibility...
Identifier
23039, 1988-077J
Orbit
HEO
Country
Flag of USUS
Related business
Manufacturer
Unknown
Mission
Spacecraft
Bus & Motor
Unknown
Mass
Unknown
Launch date (UTC)
1988-09-02 (38 years ago)
Launch vehicle
Unknown
Launch site
Air Force Eastern Test Range (AFETR)
Object type
Payload
Rocket body
Debris
Shape & HBR
Unknown shape, 0.8 m
Radar Cross Section
Large (>1 m²)

Expand to show TLE details & history
Last TLE update: 2 days ago

TLE from 2 days ago
0 TITAN 34D TRANSTAGE DEB
1 23039U 88077J   26171.12029845  .00000919  00000-0  22324-2 0  9999
2 23039  26.4135 119.2869 7366464 267.4524  14.8913  2.03935316 51275
Epoch: 2026-06-20T02:53Z
TLE epoch observation values (Epoch: 2026-06-20T02:53:13.786Z)
Latitude
0.0001°
Longitude
167.50197°
Altitude
6,051.236 km
Speed
6.997 km/s
True Right ascension
07h 56m 35s
True Declination
0° 00' 00"
Sunlit
Object was in daylight at epoch
Visualization orbit readout
Latitude
Unknown
Longitude
Unknown
Altitude
Unknown
Speed
Unknown
Apparent Right ascension
Unknown
Apparent Declination
Unknown
Sunlit
N/A
Visualization observer readout
Local Sidereal Time
23:08:24
Azimuth
Unknown
Elevation
Unknown
Doppler factor
Unknown
Orbital elements
Apogee altitude
39,244.625 km
Perigee altitude
540.323 km
Semi-major axis
26,270.611 km
Eccentricity
0.73665
Inclination
26.4135°
RAAN
119.2869°
Arg. of periapsis
267.4524°
True anomaly
92.7487°
Mean anomaly
14.8913°
Eccentric anomaly
44.44601°
Mean motion
0.50973 °/min
Orbital period
706.26 mins
BSTAR
0.0022324
Loading maneuver chart data...
Computing Atmospheric mass density...

Documentation

Showing up to 5 results
|